Time,TemperatureF,DewpointF,PressureIn,WindDirection,WindDirectionDegrees,WindSpeedMPH,WindSpeedGustMPH,Humidity,HourlyPrecipIn,Conditions,Clouds,dailyrainin,SoftwareType,DateUTC
2013-01-30 00:00:00,53.3,35.1,30.31,NNW,338,0.0,-999.0,50,0.00,,,0.00,Wunderground v.1.15,2013-01-30 08:00:00,
2013-01-30 00:05:00,53.3,35.1,30.31,NNW,338,0.0,-999.0,50,0.00,,,0.00,Wunderground v.1.15,2013-01-30 08:05:00,
2013-01-30 00:10:00,53.3,35.1,30.31,NNW,338,0.0,-999.0,50,0.00,,,0.00,Wunderground v.1.15,2013-01-30 08:10:00,
2013-01-30 00:15:00,53.3,35.1,30.31,NNW,338,0.0,-999.0,50,0.00,,,0.00,Wunderground v.1.15,2013-01-30 08:15:00,
2013-01-30 00:20:00,53.3,35.1,30.31,NNW,338,0.0,-999.0,50,0.00,,,0.00,Wunderground v.1.15,2013-01-30 08:20:00,
2013-01-30 00:25:00,53.3,35.1,30.31,NNW,338,0.0,-999.0,50,0.00,,,0.00,Wunderground v.1.15,2013-01-30 08:25:00,
2013-01-30 00:30:00,53.3,35.1,30.31,NNW,338,0.0,-999.0,50,0.00,,,0.00,Wunderground v.1.15,2013-01-30 08:30:00,
2013-01-30 00:35:00,53.3,35.1,30.31,NNW,338,0.0,-999.0,50,0.00,,,0.00,Wunderground v.1.15,2013-01-30 08:35:00,
2013-01-30 00:40:00,53.3,35.1,30.31,NNW,338,0.0,-999.0,50,0.00,,,0.00,Wunderground v.1.15,2013-01-30 08:40:00,
2013-01-30 00:45:00,49.1,35.4,30.30,NE,45,0.0,-999.0,59,0.00,,,0.00,Wunderground v.1.15,2013-01-30 08:45:00,
2013-01-30 00:50:00,49.1,35.4,30.30,NE,45,0.0,-999.0,59,0.00,,,0.00,Wunderground v.1.15,2013-01-30 08:50:00,
2013-01-30 00:55:00,49.1,35.4,30.30,NE,45,0.0,-999.0,59,0.00,,,0.00,Wunderground v.1.15,2013-01-30 08:55:00,
2013-01-30 01:00:00,49.1,35.4,30.30,NE,45,0.0,-999.0,59,0.00,,,0.00,Wunderground v.1.15,2013-01-30 09:00:00,
2013-01-30 01:05:00,49.1,35.4,30.30,NE,45,0.0,-999.0,59,0.00,,,0.00,Wunderground v.1.15,2013-01-30 09:05:00,
2013-01-30 01:10:00,49.1,35.4,30.30,NE,45,0.0,-999.0,59,0.00,,,0.00,Wunderground v.1.15,2013-01-30 09:10:00,
2013-01-30 01:15:00,47.1,35.5,30.30,East,90,0.0,-999.0,64,0.00,,,0.00,Wunderground v.1.15,2013-01-30 09:15:00,
2013-01-30 01:20:00,47.1,35.5,30.30,East,90,0.0,-999.0,64,0.00,,,0.00,Wunderground v.1.15,2013-01-30 09:20:00,
2013-01-30 01:25:00,47.1,35.5,30.30,East,90,0.0,-999.0,64,0.00,,,0.00,Wunderground v.1.15,2013-01-30 09:25:00,
2013-01-30 01:30:00,47.1,35.5,30.30,East,90,0.0,-999.0,64,0.00,,,0.00,Wunderground v.1.15,2013-01-30 09:30:00,
2013-01-30 01:35:00,47.1,35.5,30.30,East,90,0.0,-999.0,64,0.00,,,0.00,Wunderground v.1.15,2013-01-30 09:35:00,
2013-01-30 01:40:00,47.1,35.5,30.30,East,90,0.0,-999.0,64,0.00,,,0.00,Wunderground v.1.15,2013-01-30 09:40:00,
2013-01-30 01:45:00,50.6,35.0,30.30,NE,45,0.0,-999.0,55,0.00,,,0.00,Wunderground v.1.15,2013-01-30 09:45:00,
2013-01-30 01:50:00,50.6,35.0,30.30,NE,45,0.0,-999.0,55,0.00,,,0.00,Wunderground v.1.15,2013-01-30 09:50:00,
2013-01-30 01:55:00,50.6,35.0,30.30,NE,45,0.0,-999.0,55,0.00,,,0.00,Wunderground v.1.15,2013-01-30 09:55:00,
2013-01-30 02:00:00,50.6,35.0,30.30,NE,45,0.0,-999.0,55,0.00,,,0.00,Wunderground v.1.15,2013-01-30 10:00:00,
2013-01-30 02:05:00,50.6,35.0,30.30,NE,45,0.0,-999.0,55,0.00,,,0.00,Wunderground v.1.15,2013-01-30 10:05:00,
2013-01-30 02:10:00,50.6,35.0,30.30,NE,45,0.0,-999.0,55,0.00,,,0.00,Wunderground v.1.15,2013-01-30 10:10:00,
2013-01-30 02:15:00,53.1,34.9,30.29,NNE,23,0.0,-999.0,50,0.00,,,0.00,Wunderground v.1.15,2013-01-30 10:15:00,
2013-01-30 02:20:00,53.1,34.9,30.29,NNE,23,0.0,-999.0,50,0.00,,,0.00,Wunderground v.1.15,2013-01-30 10:20:00,
2013-01-30 02:25:00,53.1,34.9,30.29,NNE,23,0.0,-999.0,50,0.00,,,0.00,Wunderground v.1.15,2013-01-30 10:25:00,
2013-01-30 02:30:00,53.1,34.9,30.29,NNE,23,0.0,-999.0,50,0.00,,,0.00,Wunderground v.1.15,2013-01-30 10:30:00,
2013-01-30 02:35:00,53.1,34.9,30.29,NNE,23,0.0,-999.0,50,0.00,,,0.00,Wunderground v.1.15,2013-01-30 10:35:00,
2013-01-30 02:40:00,53.1,34.9,30.29,NNE,23,0.0,-999.0,50,0.00,,,0.00,Wunderground v.1.15,2013-01-30 10:40:00,
2013-01-30 02:45:00,47.9,35.1,30.29,East,90,1.0,-999.0,61,0.00,,,0.00,Wunderground v.1.15,2013-01-30 10:45:00,
2013-01-30 02:50:00,47.9,35.1,30.29,East,90,1.0,-999.0,61,0.00,,,0.00,Wunderground v.1.15,2013-01-30 10:50:00,
2013-01-30 02:55:00,47.9,35.1,30.29,East,90,1.0,-999.0,61,0.00,,,0.00,Wunderground v.1.15,2013-01-30 10:55:00,
2013-01-30 03:00:00,47.9,35.1,30.29,East,90,1.0,-999.0,61,0.00,,,0.00,Wunderground v.1.15,2013-01-30 11:00:00,
2013-01-30 03:05:00,47.9,35.1,30.29,East,90,1.0,-999.0,61,0.00,,,0.00,Wunderground v.1.15,2013-01-30 11:05:00,
2013-01-30 03:10:00,47.9,35.1,30.29,East,90,1.0,-999.0,61,0.00,,,0.00,Wunderground v.1.15,2013-01-30 11:10:00,
2013-01-30 03:15:00,46.3,35.6,30.28,NE,45,1.0,-999.0,66,0.00,,,0.00,Wunderground v.1.15,2013-01-30 11:15:00,
2013-01-30 03:20:00,46.3,35.6,30.28,NE,45,1.0,-999.0,66,0.00,,,0.00,Wunderground v.1.15,2013-01-30 11:20:00,
2013-01-30 03:25:00,46.3,35.6,30.28,NE,45,1.0,-999.0,66,0.00,,,0.00,Wunderground v.1.15,2013-01-30 11:25:00,
2013-01-30 03:30:00,46.3,35.6,30.28,NE,45,1.0,-999.0,66,0.00,,,0.00,Wunderground v.1.15,2013-01-30 11:30:00,
2013-01-30 03:35:00,46.3,35.6,30.28,NE,45,1.0,-999.0,66,0.00,,,0.00,Wunderground v.1.15,2013-01-30 11:35:00,
2013-01-30 03:40:00,46.3,35.6,30.28,NE,45,1.0,-999.0,66,0.00,,,0.00,Wunderground v.1.15,2013-01-30 11:40:00,
2013-01-30 03:45:00,47.8,35.4,30.27,ENE,68,2.0,-999.0,62,0.00,,,0.00,Wunderground v.1.15,2013-01-30 11:45:00,
2013-01-30 03:50:00,47.8,35.4,30.27,ENE,68,2.0,-999.0,62,0.00,,,0.00,Wunderground v.1.15,2013-01-30 11:50:00,
2013-01-30 03:55:00,47.8,35.4,30.27,ENE,68,2.0,-999.0,62,0.00,,,0.00,Wunderground v.1.15,2013-01-30 11:55:00,
2013-01-30 04:00:00,47.8,35.4,30.27,ENE,68,2.0,-999.0,62,0.00,,,0.00,Wunderground v.1.15,2013-01-30 12:00:00,
2013-01-30 04:05:00,47.8,35.4,30.27,ENE,68,2.0,-999.0,62,0.00,,,0.00,Wunderground v.1.15,2013-01-30 12:05:00,
2013-01-30 04:10:00,47.8,35.4,30.27,ENE,68,2.0,-999.0,62,0.00,,,0.00,Wunderground v.1.15,2013-01-30 12:10:00,
2013-01-30 04:15:00,45.7,35.4,30.27,East,90,2.0,-999.0,67,0.00,,,0.00,Wunderground v.1.15,2013-01-30 12:15:00,
2013-01-30 04:20:00,45.7,35.4,30.27,East,90,2.0,-999.0,67,0.00,,,0.00,Wunderground v.1.15,2013-01-30 12:20:00,
2013-01-30 04:25:00,45.7,35.4,30.27,East,90,2.0,-999.0,67,0.00,,,0.00,Wunderground v.1.15,2013-01-30 12:25:00,
2013-01-30 04:30:00,45.7,35.4,30.27,East,90,2.0,-999.0,67,0.00,,,0.00,Wunderground v.1.15,2013-01-30 12:30:00,
2013-01-30 04:35:00,45.7,35.4,30.27,East,90,2.0,-999.0,67,0.00,,,0.00,Wunderground v.1.15,2013-01-30 12:35:00,
2013-01-30 04:40:00,45.7,35.4,30.27,East,90,2.0,-999.0,67,0.00,,,0.00,Wunderground v.1.15,2013-01-30 12:40:00,
2013-01-30 04:45:00,49.0,35.3,30.26,NE,45,1.0,-999.0,59,0.00,,,0.00,Wunderground v.1.15,2013-01-30 12:45:00,
2013-01-30 04:50:00,49.0,35.3,30.26,NE,45,1.0,-999.0,59,0.00,,,0.00,Wunderground v.1.15,2013-01-30 12:50:00,
2013-01-30 04:55:00,49.0,35.3,30.26,NE,45,1.0,-999.0,59,0.00,,,0.00,Wunderground v.1.15,2013-01-30 12:55:00,
2013-01-30 05:00:00,49.0,35.3,30.26,NE,45,1.0,-999.0,59,0.00,,,0.00,Wunderground v.1.15,2013-01-30 13:00:00,
2013-01-30 05:05:00,49.0,35.3,30.26,NE,45,1.0,-999.0,59,0.00,,,0.00,Wunderground v.1.15,2013-01-30 13:05:00,
2013-01-30 05:10:00,49.0,35.3,30.26,NE,45,1.0,-999.0,59,0.00,,,0.00,Wunderground v.1.15,2013-01-30 13:10:00,
2013-01-30 05:15:00,52.5,34.4,30.26,NNW,338,1.0,-999.0,50,0.00,,,0.00,Wunderground v.1.15,2013-01-30 13:15:00,
2013-01-30 05:20:00,52.5,34.4,30.26,NNW,338,1.0,-999.0,50,0.00,,,0.00,Wunderground v.1.15,2013-01-30 13:20:00,
2013-01-30 05:25:00,52.5,34.4,30.26,NNW,338,1.0,-999.0,50,0.00,,,0.00,Wunderground v.1.15,2013-01-30 13:25:00,
2013-01-30 05:30:00,52.5,34.4,30.26,NNW,338,1.0,-999.0,50,0.00,,,0.00,Wunderground v.1.15,2013-01-30 13:30:00,
2013-01-30 05:35:00,52.5,34.4,30.26,NNW,338,1.0,-999.0,50,0.00,,,0.00,Wunderground v.1.15,2013-01-30 13:35:00,
2013-01-30 05:40:00,52.5,34.4,30.26,NNW,338,1.0,-999.0,50,0.00,,,0.00,Wunderground v.1.15,2013-01-30 13:40:00,
2013-01-30 05:45:00,51.6,34.5,30.26,NW,315,1.0,-999.0,52,0.00,,,0.00,Wunderground v.1.15,2013-01-30 13:45:00,
2013-01-30 05:50:00,51.6,34.5,30.26,NW,315,1.0,-999.0,52,0.00,,,0.00,Wunderground v.1.15,2013-01-30 13:50:00,
2013-01-30 05:55:00,51.6,34.5,30.26,NW,315,1.0,-999.0,52,0.00,,,0.00,Wunderground v.1.15,2013-01-30 13:55:00,
2013-01-30 06:00:00,51.6,34.5,30.26,NW,315,1.0,-999.0,52,0.00,,,0.00,Wunderground v.1.15,2013-01-30 14:00:00,
2013-01-30 06:05:00,51.6,34.5,30.26,NW,315,1.0,-999.0,52,0.00,,,0.00,Wunderground v.1.15,2013-01-30 14:05:00,
2013-01-30 06:10:00,51.6,34.5,30.26,NW,315,1.0,-999.0,52,0.00,,,0.00,Wunderground v.1.15,2013-01-30 14:10:00,
2013-01-30 06:15:00,49.4,34.3,30.26,NW,315,1.0,-999.0,56,0.00,,,0.00,Wunderground v.1.15,2013-01-30 14:15:00,
2013-01-30 06:20:00,49.4,34.3,30.26,NW,315,1.0,-999.0,56,0.00,,,0.00,Wunderground v.1.15,2013-01-30 14:20:00,
2013-01-30 06:25:00,49.4,34.3,30.26,NW,315,1.0,-999.0,56,0.00,,,0.00,Wunderground v.1.15,2013-01-30 14:25:00,
2013-01-30 06:30:00,49.4,34.3,30.26,NW,315,1.0,-999.0,56,0.00,,,0.00,Wunderground v.1.15,2013-01-30 14:30:00,
2013-01-30 06:35:00,49.4,34.3,30.26,NW,315,1.0,-999.0,56,0.00,,,0.00,Wunderground v.1.15,2013-01-30 14:35:00,
2013-01-30 07:36:00,48.2,34.5,30.27,ESE,104,1.0,1.0,59,0.00,,,0.00,Wunderground v.1.15,2013-01-30 15:36:00,
2013-01-30 07:45:00,49.0,34.9,30.28,East,83,1.0,2.0,58,0.00,,,0.00,Wunderground v.1.15,2013-01-30 15:45:00,
2013-01-30 07:55:00,49.5,34.9,30.28,SSE,158,1.0,2.0,57,0.00,,,0.00,Wunderground v.1.15,2013-01-30 15:55:00,
2013-01-30 08:05:00,49.2,35.0,30.28,NE,44,1.0,1.0,58,0.00,,,0.00,Wunderground v.1.15,2013-01-30 16:05:00,
2013-01-30 08:10:00,49.2,34.2,30.28,NE,48,1.0,2.0,56,0.00,,,0.00,Wunderground v.1.15,2013-01-30 16:10:00,
2013-01-30 08:20:00,49.5,34.9,30.28,East,83,1.0,1.0,57,0.00,,,0.00,Wunderground v.1.15,2013-01-30 16:20:00,
2013-01-30 08:25:00,50.2,35.1,30.28,ENE,59,1.0,1.0,56,0.00,,,0.00,Wunderground v.1.15,2013-01-30 16:25:00,
2013-01-30 08:35:00,50.9,35.3,30.28,ESE,111,1.0,1.0,55,0.00,,,0.00,Wunderground v.1.15,2013-01-30 16:35:00,
2013-01-30 08:45:00,52.6,35.9,30.29,SE,128,0.0,1.0,53,0.00,,,0.00,Wunderground v.1.15,2013-01-30 16:45:00,
2013-01-30 08:55:00,53.5,35.8,30.29,ESE,103,1.0,1.0,51,0.00,,,0.00,Wunderground v.1.15,2013-01-30 16:55:00,
2013-01-30 09:05:00,54.1,36.4,30.28,South,191,1.0,4.0,51,0.00,,,0.00,Wunderground v.1.15,2013-01-30 17:05:00,
2013-01-30 09:15:00,54.6,37.3,30.29,SSE,153,1.0,4.0,52,0.00,,,0.00,Wunderground v.1.15,2013-01-30 17:15:00,
2013-01-30 09:25:00,54.6,37.3,30.29,ESE,105,1.0,4.0,52,0.00,,,0.00,Wunderground v.1.15,2013-01-30 17:25:00,
2013-01-30 09:35:00,54.9,38.6,30.29,SE,128,1.0,4.0,54,0.00,,,0.00,Wunderground v.1.15,2013-01-30 17:35:00,
2013-01-30 09:45:00,54.8,38.0,30.29,NNW,328,0.0,4.0,53,0.00,,,0.00,Wunderground v.1.15,2013-01-30 17:45:00,
2013-01-30 09:50:00,55.2,38.8,30.29,NNW,328,0.0,4.0,54,0.00,,,0.00,Wunderground v.1.15,2013-01-30 17:50:00,
2013-01-30 10:00:00,54.3,38.5,30.29,West,266,1.0,4.0,55,0.00,,,0.00,Wunderground v.1.15,2013-01-30 18:00:00,
2013-01-30 10:10:00,54.0,39.1,30.29,West,260,0.0,4.0,57,0.00,,,0.00,Wunderground v.1.15,2013-01-30 18:10:00,
2013-01-30 10:20:00,54.2,38.4,30.29,WSW,249,1.0,4.0,55,0.00,,,0.00,Wunderground v.1.15,2013-01-30 18:20:00,
2013-01-30 10:30:00,54.1,38.7,30.29,SSW,197,0.0,4.0,56,0.00,,,0.00,Wunderground v.1.15,2013-01-30 18:30:00,
2013-01-30 10:40:00,54.1,39.2,30.29,SW,236,0.0,4.0,57,0.00,,,0.00,Wunderground v.1.15,2013-01-30 18:40:00,
2013-01-30 10:50:00,53.8,38.9,30.29,WSW,256,1.0,4.0,57,0.00,,,0.00,Wunderground v.1.15,2013-01-30 18:50:00,
2013-01-30 11:00:00,53.7,39.7,30.29,WSW,250,1.0,1.0,59,0.00,,,0.00,Wunderground v.1.15,2013-01-30 19:00:00,
2013-01-30 11:10:00,54.1,39.2,30.28,SW,215,1.0,4.0,57,0.00,,,0.00,Wunderground v.1.15,2013-01-30 19:10:00,
2013-01-30 11:15:00,54.3,39.8,30.28,SSE,148,1.0,4.0,58,0.00,,,0.00,Wunderground v.1.15,2013-01-30 19:15:00,
2013-01-30 11:25:00,54.6,40.1,30.28,South,170,1.0,4.0,58,0.00,,,0.00,Wunderground v.1.15,2013-01-30 19:25:00,
2013-01-30 11:30:00,54.7,40.2,30.28,SW,235,1.0,1.0,58,0.00,,,0.00,Wunderground v.1.15,2013-01-30 19:30:00,
2013-01-30 11:40:00,54.9,39.9,30.28,WSW,248,1.0,4.0,57,0.00,,,0.00,Wunderground v.1.15,2013-01-30 19:40:00,
2013-01-30 11:45:00,54.3,40.3,30.27,WSW,257,1.0,4.0,59,0.00,,,0.00,Wunderground v.1.15,2013-01-30 19:45:00,
2013-01-30 11:55:00,54.5,40.5,30.27,SSW,201,2.0,4.0,59,0.00,,,0.00,Wunderground v.1.15,2013-01-30 19:55:00,
2013-01-30 12:05:00,55.1,40.6,30.26,SSW,204,1.0,1.0,58,0.00,,,0.00,Wunderground v.1.15,2013-01-30 20:05:00,
2013-01-30 12:15:00,55.4,41.3,30.26,SSE,166,1.0,1.0,59,0.00,,,0.00,Wunderground v.1.15,2013-01-30 20:15:00,
2013-01-30 12:20:00,55.7,41.1,30.26,WSW,256,1.0,1.0,58,0.00,,,0.00,Wunderground v.1.15,2013-01-30 20:20:00,
2013-01-30 12:25:00,55.6,41.5,30.25,SW,232,1.0,1.0,59,0.00,,,0.00,Wunderground v.1.15,2013-01-30 20:25:00,
2013-01-30 12:35:00,55.8,41.7,30.25,SSE,167,1.0,1.0,59,0.00,,,0.00,Wunderground v.1.15,2013-01-30 20:35:00,
2013-01-30 12:45:00,56.2,42.1,30.25,SW,231,1.0,1.0,59,0.00,,,0.00,Wunderground v.1.15,2013-01-30 20:45:00,
2013-01-30 12:50:00,56.5,42.3,30.25,South,174,1.0,1.0,59,0.00,,,0.00,Wunderground v.1.15,2013-01-30 20:50:00,
2013-01-30 13:00:00,56.9,42.3,30.25,SW,229,1.0,2.0,58,0.00,,,0.00,Wunderground v.1.15,2013-01-30 21:00:00,
2013-01-30 13:10:00,57.2,42.5,30.24,South,188,1.0,1.0,58,0.00,,,0.00,Wunderground v.1.15,2013-01-30 21:10:00,
2013-01-30 13:20:00,56.9,42.3,30.24,SW,218,1.0,6.0,58,0.00,,,0.00,Wunderground v.1.15,2013-01-30 21:20:00,
2013-01-30 13:30:00,56.4,42.2,30.23,WSW,246,2.0,2.0,59,0.00,,,0.00,Wunderground v.1.15,2013-01-30 21:30:00,
2013-01-30 13:40:00,56.4,42.7,30.23,SE,140,2.0,6.0,60,0.00,,,0.00,Wunderground v.1.15,2013-01-30 21:40:00,
2013-01-30 13:50:00,56.7,42.5,30.23,SSE,161,1.0,6.0,59,0.00,,,0.00,Wunderground v.1.15,2013-01-30 21:50:00,
2013-01-30 14:00:00,56.2,42.9,30.23,SSE,165,2.0,2.0,61,0.00,,,0.00,Wunderground v.1.15,2013-01-30 22:00:00,
2013-01-30 14:10:00,56.5,42.8,30.24,South,190,1.0,6.0,60,0.00,,,0.00,Wunderground v.1.15,2013-01-30 22:10:00,
2013-01-30 14:20:00,56.1,42.8,30.24,South,183,2.0,6.0,61,0.00,,,0.00,Wunderground v.1.15,2013-01-30 22:20:00,
2013-01-30 14:30:00,56.5,42.8,30.24,SSW,200,1.0,1.0,60,0.00,,,0.00,Wunderground v.1.15,2013-01-30 22:30:00,
2013-01-30 14:35:00,56.5,42.8,30.24,SSE,161,1.0,2.0,60,0.00,,,0.00,Wunderground v.1.15,2013-01-30 22:35:00,
2013-01-30 14:40:00,56.3,42.6,30.24,SSW,198,1.0,1.0,60,0.00,,,0.00,Wunderground v.1.15,2013-01-30 22:40:00,
2013-01-30 14:50:00,56.4,42.7,30.24,West,267,1.0,6.0,60,0.00,,,0.00,Wunderground v.1.15,2013-01-30 22:50:00,
2013-01-30 15:00:00,55.9,42.6,30.23,SSE,162,1.0,1.0,61,0.00,,,0.00,Wunderground v.1.15,2013-01-30 23:00:00,
2013-01-30 15:10:00,56.7,43.0,30.23,ESE,111,0.0,6.0,60,0.00,,,0.00,Wunderground v.1.15,2013-01-30 23:10:00,
2013-01-30 15:20:00,55.9,42.6,30.23,ESE,108,1.0,6.0,61,0.00,,,0.00,Wunderground v.1.15,2013-01-30 23:20:00,
2013-01-30 15:25:00,55.4,42.2,30.23,SE,126,2.0,6.0,61,0.00,,,0.00,Wunderground v.1.15,2013-01-30 23:25:00,
2013-01-30 15:35:00,54.9,42.1,30.23,SSE,160,2.0,6.0,62,0.00,,,0.00,Wunderground v.1.15,2013-01-30 23:35:00,
2013-01-30 15:45:00,54.9,42.5,30.23,SW,224,1.0,6.0,63,0.00,,,0.00,Wunderground v.1.15,2013-01-30 23:45:00,
2013-01-30 15:55:00,54.6,42.3,30.23,WSW,246,0.0,6.0,63,0.00,,,0.00,Wunderground v.1.15,2013-01-30 23:55:00,
2013-01-30 16:05:00,54.6,42.3,30.23,SSE,159,1.0,1.0,63,0.00,,,0.00,Wunderground v.1.15,2013-01-31 00:05:00,
2013-01-30 16:10:00,54.4,42.1,30.23,SSE,156,1.0,1.0,63,0.00,,,0.00,Wunderground v.1.15,2013-01-31 00:10:00,
2013-01-30 16:20:00,54.0,42.1,30.23,SSE,158,1.0,1.0,64,0.00,,,0.00,Wunderground v.1.15,2013-01-31 00:20:00,
2013-01-30 16:30:00,53.5,42.0,30.23,SE,132,1.0,1.0,65,0.00,,,0.00,Wunderground v.1.15,2013-01-31 00:30:00,
2013-01-30 16:40:00,53.1,42.0,30.23,South,174,0.0,0.0,66,0.00,,,0.00,Wunderground v.1.15,2013-01-31 00:40:00,
2013-01-30 16:50:00,52.6,41.9,30.23,SSE,158,0.0,0.0,67,0.00,,,0.00,Wunderground v.1.15,2013-01-31 00:50:00,
2013-01-30 17:00:00,52.0,41.8,30.23,SW,218,0.0,0.0,68,0.00,,,0.00,Wunderground v.1.15,2013-01-31 01:00:00,
2013-01-30 17:10:00,51.5,41.3,30.23,SW,222,0.0,3.0,68,0.00,,,0.00,Wunderground v.1.15,2013-01-31 01:10:00,
2013-01-30 17:20:00,51.0,41.6,30.24,WSW,238,0.0,3.0,70,0.00,,,0.00,Wunderground v.1.15,2013-01-31 01:20:00,
2013-01-30 17:30:00,50.5,41.1,30.24,WSW,238,0.0,3.0,70,0.00,,,0.00,Wunderground v.1.15,2013-01-31 01:30:00,
2013-01-30 17:40:00,50.1,41.1,30.24,WSW,239,0.0,3.0,71,0.00,,,0.00,Wunderground v.1.15,2013-01-31 01:40:00,
2013-01-30 17:50:00,49.6,40.9,30.25,WSW,239,0.0,3.0,72,0.00,,,0.00,Wunderground v.1.15,2013-01-31 01:50:00,
2013-01-30 18:00:00,49.1,41.2,30.25,WSW,239,0.0,3.0,74,0.00,,,0.00,Wunderground v.1.15,2013-01-31 02:00:00,
2013-01-30 18:10:00,49.2,41.3,30.25,SSE,159,0.0,3.0,74,0.00,,,0.00,Wunderground v.1.15,2013-01-31 02:10:00,
2013-01-30 18:20:00,49.4,41.5,30.25,SE,125,0.0,3.0,74,0.00,,,0.00,Wunderground v.1.15,2013-01-31 02:20:00,
2013-01-30 18:30:00,49.1,41.5,30.25,ENE,68,0.0,3.0,75,0.00,,,0.00,Wunderground v.1.15,2013-01-31 02:30:00,
2013-01-30 18:40:00,48.2,41.0,30.25,East,87,0.0,3.0,76,0.00,,,0.00,Wunderground v.1.15,2013-01-31 02:40:00,
2013-01-30 18:50:00,47.8,41.3,30.25,East,79,0.0,3.0,78,0.00,,,0.00,Wunderground v.1.15,2013-01-31 02:50:00,
2013-01-30 19:00:00,48.0,41.5,30.25,East,90,0.0,3.0,78,0.00,,,0.00,Wunderground v.1.15,2013-01-31 03:00:00,
2013-01-30 19:31:00,47.9,41.4,30.25,East,90,1.0,-999.0,78,0.00,,,0.00,Wunderground v.1.15,2013-01-31 03:31:00,
2013-01-30 19:36:00,47.9,41.4,30.25,East,90,1.0,-999.0,78,0.00,,,0.00,Wunderground v.1.15,2013-01-31 03:36:00,
2013-01-30 19:41:00,47.9,41.4,30.25,East,90,1.0,-999.0,78,0.00,,,0.00,Wunderground v.1.15,2013-01-31 03:41:00,
2013-01-30 19:46:00,48.1,41.6,30.24,ENE,68,1.0,-999.0,78,0.00,,,0.00,Wunderground v.1.15,2013-01-31 03:46:00,
2013-01-30 19:51:00,48.1,41.6,30.24,ENE,68,1.0,-999.0,78,0.00,,,0.00,Wunderground v.1.15,2013-01-31 03:51:00,
2013-01-30 19:56:00,48.1,41.6,30.24,ENE,68,1.0,-999.0,78,0.00,,,0.00,Wunderground v.1.15,2013-01-31 03:56:00,
2013-01-30 20:01:00,48.1,41.6,30.24,ENE,68,1.0,-999.0,78,0.00,,,0.00,Wunderground v.1.15,2013-01-31 04:01:00,
2013-01-30 20:06:00,48.1,41.6,30.24,ENE,68,1.0,-999.0,78,0.00,,,0.00,Wunderground v.1.15,2013-01-31 04:06:00,
2013-01-30 20:11:00,48.1,41.6,30.24,ENE,68,1.0,-999.0,78,0.00,,,0.00,Wunderground v.1.15,2013-01-31 04:11:00,
2013-01-30 20:16:00,47.6,41.4,30.25,East,90,1.0,-999.0,79,0.00,,,0.00,Wunderground v.1.15,2013-01-31 04:16:00,
2013-01-30 20:21:00,47.6,41.4,30.25,East,90,1.0,-999.0,79,0.00,,,0.00,Wunderground v.1.15,2013-01-31 04:21:00,
2013-01-30 20:26:00,47.6,41.4,30.25,East,90,1.0,-999.0,79,0.00,,,0.00,Wunderground v.1.15,2013-01-31 04:26:00,
2013-01-30 20:31:00,47.6,41.4,30.25,East,90,1.0,-999.0,79,0.00,,,0.00,Wunderground v.1.15,2013-01-31 04:31:00,
2013-01-30 20:36:00,47.6,41.4,30.25,East,90,1.0,-999.0,79,0.00,,,0.00,Wunderground v.1.15,2013-01-31 04:36:00,
2013-01-30 20:41:00,47.6,41.4,30.25,East,90,1.0,-999.0,79,0.00,,,0.00,Wunderground v.1.15,2013-01-31 04:41:00,
2013-01-30 20:46:00,47.2,41.7,30.25,ENE,68,0.0,-999.0,81,0.00,,,0.00,Wunderground v.1.15,2013-01-31 04:46:00,
2013-01-30 20:51:00,47.2,41.7,30.25,ENE,68,0.0,-999.0,81,0.00,,,0.00,Wunderground v.1.15,2013-01-31 04:51:00,
2013-01-30 20:56:00,47.2,41.7,30.25,ENE,68,0.0,-999.0,81,0.00,,,0.00,Wunderground v.1.15,2013-01-31 04:56:00,
2013-01-30 21:01:00,47.2,41.7,30.25,ENE,68,0.0,-999.0,81,0.00,,,0.00,Wunderground v.1.15,2013-01-31 05:01:00,
2013-01-30 21:06:00,47.2,41.7,30.25,ENE,68,0.0,-999.0,81,0.00,,,0.00,Wunderground v.1.15,2013-01-31 05:06:00,
2013-01-30 21:11:00,47.2,41.7,30.25,ENE,68,0.0,-999.0,81,0.00,,,0.00,Wunderground v.1.15,2013-01-31 05:11:00,
2013-01-30 21:16:00,47.0,41.5,30.26,ENE,68,0.0,-999.0,81,0.00,,,0.00,Wunderground v.1.15,2013-01-31 05:16:00,
2013-01-30 21:21:00,47.0,41.5,30.26,ENE,68,0.0,-999.0,81,0.00,,,0.00,Wunderground v.1.15,2013-01-31 05:21:00,
2013-01-30 21:26:00,47.0,41.5,30.26,ENE,68,0.0,-999.0,81,0.00,,,0.00,Wunderground v.1.15,2013-01-31 05:26:00,
2013-01-30 21:31:00,47.0,41.5,30.26,ENE,68,0.0,-999.0,81,0.00,,,0.00,Wunderground v.1.15,2013-01-31 05:31:00,
2013-01-30 21:36:00,47.0,41.5,30.26,ENE,68,0.0,-999.0,81,0.00,,,0.00,Wunderground v.1.15,2013-01-31 05:36:00,
2013-01-30 21:41:00,47.0,41.5,30.26,ENE,68,0.0,-999.0,81,0.00,,,0.00,Wunderground v.1.15,2013-01-31 05:41:00,
2013-01-30 21:46:00,47.3,41.8,30.25,NE,45,0.0,-999.0,81,0.00,,,0.00,Wunderground v.1.15,2013-01-31 05:46:00,
2013-01-30 21:51:00,47.3,41.8,30.25,NE,45,0.0,-999.0,81,0.00,,,0.00,Wunderground v.1.15,2013-01-31 05:51:00,
2013-01-30 21:56:00,47.3,41.8,30.25,NE,45,0.0,-999.0,81,0.00,,,0.00,Wunderground v.1.15,2013-01-31 05:56:00,
2013-01-30 22:01:00,47.3,41.8,30.25,NE,45,0.0,-999.0,81,0.00,,,0.00,Wunderground v.1.15,2013-01-31 06:01:00,
2013-01-30 22:06:00,47.3,41.8,30.25,NE,45,0.0,-999.0,81,0.00,,,0.00,Wunderground v.1.15,2013-01-31 06:06:00,
2013-01-30 22:11:00,47.3,41.8,30.25,NE,45,0.0,-999.0,81,0.00,,,0.00,Wunderground v.1.15,2013-01-31 06:11:00,
2013-01-30 22:16:00,46.5,41.6,30.25,NE,45,0.0,-999.0,83,0.00,,,0.00,Wunderground v.1.15,2013-01-31 06:16:00,
2013-01-30 22:21:00,46.5,41.6,30.25,NE,45,0.0,-999.0,83,0.00,,,0.00,Wunderground v.1.15,2013-01-31 06:21:00,
2013-01-30 22:26:00,46.5,41.6,30.25,NE,45,0.0,-999.0,83,0.00,,,0.00,Wunderground v.1.15,2013-01-31 06:26:00,
2013-01-30 22:31:00,46.5,41.6,30.25,NE,45,0.0,-999.0,83,0.00,,,0.00,Wunderground v.1.15,2013-01-31 06:31:00,
2013-01-30 22:36:00,46.5,41.6,30.25,NE,45,0.0,-999.0,83,0.00,,,0.00,Wunderground v.1.15,2013-01-31 06:36:00,
2013-01-30 22:41:00,46.5,41.6,30.25,NE,45,0.0,-999.0,83,0.00,,,0.00,Wunderground v.1.15,2013-01-31 06:41:00,
2013-01-30 22:46:00,46.1,41.2,30.26,ENE,68,0.0,-999.0,83,0.00,,,0.00,Wunderground v.1.15,2013-01-31 06:46:00,
2013-01-30 22:51:00,46.1,41.2,30.26,ENE,68,0.0,-999.0,83,0.00,,,0.00,Wunderground v.1.15,2013-01-31 06:51:00,
2013-01-30 22:56:00,46.1,41.2,30.26,ENE,68,0.0,-999.0,83,0.00,,,0.00,Wunderground v.1.15,2013-01-31 06:56:00,
2013-01-30 23:01:00,46.1,41.2,30.26,ENE,68,0.0,-999.0,83,0.00,,,0.00,Wunderground v.1.15,2013-01-31 07:01:00,
2013-01-30 23:06:00,46.1,41.2,30.26,ENE,68,0.0,-999.0,83,0.00,,,0.00,Wunderground v.1.15,2013-01-31 07:06:00,
2013-01-30 23:11:00,46.1,41.2,30.26,ENE,68,0.0,-999.0,83,0.00,,,0.00,Wunderground v.1.15,2013-01-31 07:11:00,
2013-01-30 23:16:00,46.1,40.9,30.26,ENE,68,0.0,-999.0,82,0.00,,,0.00,Wunderground v.1.15,2013-01-31 07:16:00,
2013-01-30 23:21:00,46.1,40.9,30.26,ENE,68,0.0,-999.0,82,0.00,,,0.00,Wunderground v.1.15,2013-01-31 07:21:00,
2013-01-30 23:26:00,46.1,40.9,30.26,ENE,68,0.0,-999.0,82,0.00,,,0.00,Wunderground v.1.15,2013-01-31 07:26:00,
2013-01-30 23:31:00,46.1,40.9,30.26,ENE,68,0.0,-999.0,82,0.00,,,0.00,Wunderground v.1.15,2013-01-31 07:31:00,
2013-01-30 23:36:00,46.1,40.9,30.26,ENE,68,0.0,-999.0,82,0.00,,,0.00,Wunderground v.1.15,2013-01-31 07:36:00,
2013-01-30 23:41:00,46.1,40.9,30.26,ENE,68,0.0,-999.0,82,0.00,,,0.00,Wunderground v.1.15,2013-01-31 07:41:00,
2013-01-30 23:46:00,46.7,40.9,30.26,NE,45,0.0,-999.0,80,0.00,,,0.00,Wunderground v.1.15,2013-01-31 07:46:00,
2013-01-30 23:51:00,46.7,40.9,30.26,NE,45,0.0,-999.0,80,0.00,,,0.00,Wunderground v.1.15,2013-01-31 07:51:00,
2013-01-30 23:56:00,46.7,40.9,30.26,NE,45,0.0,-999.0,80,0.00,,,0.00,Wunderground v.1.15,2013-01-31 07:56:00,